Regional Weather Roundup
Issued by NWS

Home | Current Version | Previous Version | Graphics & Text | Print | Product List | Glossary On
Versions: 1 2 3 4 5 6 7 8 9 10 11 12 13 14 15 16 17 18 19 20 21 22 23 24 25 26 27 28 29 30 31 32 33 34 35 36 37 38 39 40 41 42 43 44 45 46 47 48 49 50
000
ASUS43 KLMK 022002
RWRKY
KENTUCKY REGIONAL WEATHER ROUNDUP
NATIONAL WEATHER SERVICE LOUISVILLE KY
400 PM EDT TUE SEP 02 2014

NOTE "FAIR" INDICATES FEW OR NO CLOUDS BELOW 12,000 FEET
WITH NO SIGNIFICANT WEATHER AND/OR OBSTRUCTIONS TO VISIBILITY.

KYZ001>023-026-027-061>063-070>075-022100-
WESTERN AND SOUTH CENTRAL KENTUCKY

CITY           SKY/WX    TMP DP  RH WIND       PRES   REMARKS
PADUCAH        PTSUNNY   86  70  58 W7        29.96F HX  90
HENDERSON      PTSUNNY   84  72  65 W9        29.95F
OWENSBORO      PTSUNNY   88  72  58 W12G18    29.94F HX  94
HOPKINSVILLE   PTSUNNY   87  77  70 W13       29.95F HX  99
BOWLING GREEN  PTSUNNY   85  73  67 W9G20     29.95F HX  91
GLASGOW        TSTM      71  71  99 S5        29.98F
$$

KYZ024-025-028>034-038-045-046-053-022100-
NORTH CENTRAL KENTUCKY

CITY           SKY/WX    TMP DP  RH WIND       PRES   REMARKS
LOUISVILLE/SDF PTSUNNY   87  72  60 W18       29.92F HX  93
LOUISVILLE/LOU CLOUDY    85  71  63 W15       29.92F HX  90
FORT KNOX      PTSUNNY   85  74  69 SW10      29.93F HX  93
$$

KYZ035>037-039>044-047>052-055>060-089>105-022100-
NORTHEAST KENTUCKY

CITY           SKY/WX    TMP DP  RH WIND       PRES   REMARKS
LEXINGTON      RAIN      77  69  76 W22G37    29.98S
COVINGTON      RAIN      76  69  79 CALM      29.95F
FRANKFORT      LGT RAIN  79  72  79 SW12      29.93F
$$

KYZ054-064>069-076>088-106>120-022100-
SOUTHEAST KENTUCKY

CITY           SKY/WX    TMP DP  RH WIND       PRES   REMARKS
JACKSON        PTSUNNY   77  70  79 NW3       29.99F
LONDON         MOSUNNY   89  68  49 W10       29.98F HX  93
SOMERSET       MOSUNNY   86  66  51 W13G22    29.97F
MIDDLESBORO    SUNNY     88  72  58 S7        29.99F HX  95
MONTICELLO     CLEAR     90  74  59 SW10      29.98F HX  99
$$



USA.gov is the U.S. government's official web portal to all federal, state and local government web resources and services.